Location: El Águila
(10.4167°N, 66.7167°W)
Time: 13:14:27
(UTC+00:00)

SWIFT - Visible Passes

Search period start: 01 April 2023 00:00
Search period end: 11 April 2023 00:00
Orbit: 530 x 544 km, 20.6° (Epoch: 31 March)

Date Brightness Start Highest point End Pass type
(mag) Time Alt. Az. Time Alt. Az. Time Alt. Az.
01 Apr 5.3 00:56:31 10° W 00:57:15 14° WNW 00:57:15 14° WNW visible
01 Apr 3.8 09:28:12 19° SW 09:29:23 21° SSW 09:32:35 10° SSE visible
01 Apr 2.2 23:03:18 10° WSW 23:07:24 89° SSE 23:11:30 10° ENE visible
02 Apr 4.8 00:45:22 10° WNW 00:46:54 19° WNW 00:46:54 19° WNW visible
02 Apr 4.1 09:17:53 16° SSW 09:18:01 16° SSW 09:20:41 10° SSE visible
02 Apr 2.4 22:51:57 10° WSW 22:56:01 72° NNW 23:00:07 10° ENE visible
03 Apr 4.4 00:34:13 10° WNW 00:36:28 23° NW 00:36:28 23° NW visible
03 Apr 4.6 09:07:33 12° S 09:07:33 12° S 09:08:31 10° S visible
04 Apr 4.1 00:23:02 10° WNW 00:25:58 24° NNW 00:25:58 24° NNW visible
05 Apr 4.1 00:11:50 10° WNW 00:15:05 22° N 00:15:25 22° N visible
06 Apr 4.1 00:00:36 10° NW 00:03:44 21° N 00:04:46 19° NNE visible
06 Apr 4.3 23:49:20 10° NW 23:52:21 20° N 23:54:05 16° NNE visible
07 Apr 4.3 23:38:00 10° NW 23:40:58 19° N 23:43:20 13° NE visible
08 Apr 4.3 23:26:36 10° NW 23:29:33 19° N 23:32:30 10° NE visible
09 Apr 4.3 23:15:08 10° NW 23:18:07 19° N 23:21:06 10° NE visible
10 Apr 5.3 00:56:29 10° NW 00:56:58 13° NW 00:56:58 13° NW visible
10 Apr 4.2 23:03:36 10° NW 23:06:39 20° N 23:09:42 10° NE visible
